DW9040 Weather Reports


time (UTC)temp
C
wind
direction
speed
KPH
gust
KPH
rain 1hr
cm
rain 24hr
cm
rain mn
cm
humidity
%
barometer
mb
20260507173501 13 115 1.6 4.8 0.00 1.09 0.30 73 1011.3
20260507171957 13 102 1.6 9.7 0.00 1.09 0.30 65 1011.5
20260507170500 13 118 3.2 6.4 0.00 1.09 0.30 63 1011.6
20260507164946 13 86 3.2 8.0 0.00 1.09 0.30 70 1011.8
20260507163449 13 122 1.6 4.8 0.00 1.09 0.30 71 1012.2
20260507161944 13 49 1.6 11.3 0.00 1.09 0.30 61 1012.6
20260507160519 13 78 4.8 14.5 0.00 1.09 0.30 59 1012.3
20260507154955 13 46 6.4 11.3 0.00 1.09 0.30 61 1012.4
20260507153454 13 5 1.6 6.4 0.00 1.09 0.30 62 1012.6
20260507151956 12 67 1.6 6.4 0.00 1.09 0.30 69 1012.5
20260507150459 12 56 3.2 6.4 0.00 1.09 0.30 70 1012.7
20260507145012 12 46 4.8 8.0 0.00 1.19 0.30 71 1012.8
20260507143451 12 92 4.8 6.4 0.00 1.19 0.30 74 1013.1
20260507142003 12 51 3.2 6.4 0.00 1.19 0.30 73 1013.3
20260507140524 12 15 3.2 6.4 0.00 1.19 0.30 76 1013.3
20260507134956 12 67 3.2 8.0 0.00 1.24 0.30 78 1013.4
20260507133459 12 87 3.2 9.7 0.00 1.24 0.30 82 1013.5
20260507132001 12 58 3.2 8.0 0.00 1.24 0.30 83 1013.4
20260507130503 12 60 3.2 8.0 0.00 1.24 0.30 84 1013.3
20260507125000 12 37 3.2 6.4 0.00 1.42 0.30 83 1013.3
20260507123448 12 30 3.2 8.0 0.00 1.42 0.30 83 1013.2
20260507122000 12 59 3.2 9.7 0.00 1.42 0.30 83 1013.0
20260507120501 12 49 3.2 6.4 0.00 1.42 0.30 84 1013.1
20260507114956 12 44 4.8 12.9 0.00 1.45 0.30 85 1012.5
20260507113459 12 53 3.2 6.4 0.00 1.45 0.30 85 1012.7
20260507111959 12 17 4.8 8.0 0.00 1.45 0.30 86 1012.4
20260507110446 11 30 0.0 0.0 0.00 1.45 0.30 90 1012.5
20260507105002 11 17 0.0 0.0 0.00 1.45 0.30 91 1012.6
20260507103502 11 59 0.0 0.0 0.00 1.45 0.30 92 1012.2
20260507101957 11 40 0.0 0.0 0.00 1.45 0.30 91 1012.3
20260507100501 11 27 0.0 0.0 0.00 1.45 0.30 92 1012.1
20260507094958 11 27 0.0 0.0 0.00 1.45 0.30 92 1011.9
20260507093459 12 60 0.0 0.0 0.00 1.45 0.30 92 1011.9
20260507092002 12 60 0.0 4.8 0.00 1.45 0.30 92 1012.0
20260507090503 12 55 0.0 3.2 0.00 1.45 0.30 92 1011.8
20260507084955 12 67 1.6 3.2 0.00 1.45 0.30 92 1011.6
20260507083503 12 57 0.0 4.8 0.00 1.45 0.30 92 1011.7
20260507082001 12 55 0.0 0.0 0.00 1.45 0.30 92 1011.7
20260507080524 12 53 0.0 0.0 0.00 1.45 0.30 92 1011.7
20260507074957 12 45 1.6 8.0 0.00 1.45 0.30 91 1011.2
20260507073511 12 59 3.2 6.4 0.00 1.45 0.30 91 1010.9
20260507071953 12 80 4.8 8.0 0.00 1.45 0.30 91 1010.9
20260507070522 12 65 3.2 6.4 0.00 1.45 0.30 91 1010.9
20260507065011 13 69 1.6 6.4 0.00 1.45 0.30 91 1011.1
20260507063529 13 65 6.4 11.3 0.00 1.45 0.30 90 1010.9
20260507061956 13 16 6.4 11.3 0.03 1.45 0.30 91 1011.1
20260507060456 13 42 4.8 11.3 0.05 1.45 0.30 91 1011.5
20260507054956 13 26 6.4 14.5 0.10 1.45 0.30 92 1011.0
20260507053510 14 65 4.8 12.9 0.20 1.45 0.30 93 1010.2
20260507052000 13 38 0.0 0.0 0.20 1.42 0.28 93 1010.5
20260507050446 14 69 1.6 6.4 0.20 1.40 0.25 93 1010.7
20260507044944 14 40 1.6 4.8 0.46 1.35 0.20 93 1010.3
20260507043446 14 69 0.0 6.4 0.86 1.24 0.10 93 1010.9
20260507041945 14 71 1.6 8.0 0.84 1.22 0.08 92 1010.8
20260507040448 15 67 4.8 11.3 0.81 1.19 0.05 90 1011.1
20260507035001 16 17 9.7 17.7 0.51 0.89 0.89 86 1010.8
20260507033445 17 5 4.8 11.3 0.00 0.38 0.38 85 1010.1
20260507031942 17 26 4.8 9.7 0.00 0.38 0.38 86 1010.0
20260507030446 18 355 3.2 14.5 0.00 0.38 0.38 89 1010.2
20260507024943 18 331 0.0 4.8 0.00 0.38 0.38 91 1010.0
20260507023446 18 56 0.0 3.2 0.00 0.38 0.38 91 1009.6
20260507022003 18 40 1.6 4.8 0.00 0.38 0.38 91 1009.7
20260507020502 18 5 3.2 6.4 0.03 0.38 0.38 91 1009.5
20260507014958 18 67 0.0 3.2 0.03 0.38 0.38 90 1008.9
20260507013453 18 48 1.6 4.8 0.03 0.38 0.38 89 1009.5
20260507011951 18 282 0.0 0.0 0.03 0.38 0.38 89 1009.7
20260507010458 18 210 0.0 0.0 0.00 0.36 0.36 86 1009.6
20260507005012 19 210 0.0 0.0 0.00 0.36 0.36 85 1009.5
20260507003452 19 210 0.0 0.0 0.00 0.36 0.36 83 1009.2
20260507002003 20 210 0.0 1.6 0.00 0.36 0.36 80 1008.8
20260507000450 20 226 3.2 6.4 0.00 0.36 0.36 78 1008.9
20260506235004 21 214 1.6 8.0 0.00 0.36 0.36 77 1008.8
20260506233444 21 193 8.0 14.5 0.00 0.36 0.36 76 1008.5
20260506231945 21 248 8.0 14.5 0.00 0.36 0.36 75 1008.2
20260506230445 21 192 6.4 12.9 0.00 0.36 0.36 74 1008.2
20260506225000 22 211 4.8 11.3 0.00 0.36 0.36 75 1008.3
20260506223444 22 178 4.8 16.1 0.00 0.36 0.36 74 1008.2
20260506221946 22 225 8.0 16.1 0.00 0.36 0.36 73 1008.3
20260506220502 22 244 3.2 11.3 0.00 0.36 0.36 74 1008.2
20260506214956 22 184 6.4 11.3 0.00 0.36 0.36 73 1008.1
20260506213501 21 204 9.7 16.1 0.00 0.36 0.36 74 1008.2
20260506211958 21 209 6.4 14.5 0.00 0.36 0.36 75 1008.3
20260506210522 21 214 8.0 17.7 0.00 0.36 0.36 75 1008.1
20260506204939 21 229 6.4 20.9 0.00 0.36 0.36 75 1008.0
20260506203504 21 202 11.3 20.9 0.00 0.36 0.36 75 1008.0
20260506202000 21 242 9.7 20.9 0.00 0.36 0.36 77 1008.1
20260506200506 20 245 14.5 25.7 0.00 0.36 0.36 77 1008.0
20260506195006 20 205 9.7 16.1 0.00 0.36 0.36 78 1008.0
20260506193502 20 233 9.7 20.9 0.00 0.36 0.36 79 1008.1
20260506191958 20 279 9.7 22.5 0.00 0.36 0.36 80 1008.3
20260506190445 19 207 9.7 17.7 0.00 0.36 0.36 80 1008.6
20260506185003 19 191 4.8 19.3 0.00 0.36 0.36 81 1008.8
20260506183502 19 243 8.0 30.6 0.00 0.36 0.36 81 1009.2
20260506181943 19 271 9.7 19.3 0.00 0.36 0.36 81 1009.2
20260506180444 18 241 8.0 17.7 0.00 0.36 0.36 82 1009.1
20260506174940 18 250 8.0 16.1 0.00 0.36 0.36 82 1009.0